Regional Weather Roundup
Issued by NWS New Orleans/Baton Rouge, LA

Home | Current Version | Previous Version | Text Only | Print | Product List | Glossary On
Versions: 1 2 3 4 5 6 7 8 9 10 11 12 13 14 15 16 17 18 19 20 21 22 23 24 25 26 27 28 29 30 31 32 33 34 35 36 37 38 39 40 41 42 43 44 45 46 47 48 49 50
538
ASUS44 KLIX 230101
RWRLIX
NEW ORLEANS REGIONAL WEATHER ROUNDUP
NATIONAL WEATHER SERVICE NEW ORLEANS LA
800 PM CDT MON SEP 22 2014

NOTE: "FAIR" INDICATES FEW OR NO CLOUDS BELOW 12,000 FEET WITH NO
      SIGNIFICANT WEATHER AND/OR OBSTRUCTIONS TO VISIBILITY.
      SKY/WX - SKY CONDITION AND SIGNIFICANT WEATHER.
      TMP - AIR TEMPERATURE.     DP    - DEWPOINT TEMPERATURE.
      RH  - RELATIVE HUMIDITY.   PRES  - PRESSURE.
      HI  - HEAT INDEX.          WCI   - WIND CHILL INDEX.

*  THESE STATIONS ARE NOT NWS OR FAA STATIONS AND ARE NOT UNDER
   NWS QUALITY CONTROL.

LAZ038-040-048-061>063-065>067-069-230200-
SOUTHEAST LOUISIANA

CITY           SKY/WX    TMP DP  RH WIND       PRES   REMARKS
N.O. AUDUBON     N/A     82  63  53 MISG        N/A
N.O. INTL ARPT PTCLDY    83  59  44 NE21      30.01R
N.O. LAKEFRONT CLEAR     83  64  52 N21       30.02R
N.O. DOWNTOWN*   N/A     82  61  47 N9G20     30.01R
SLIDELL        CLEAR     74  63  68 N3        30.02R
BATON ROUGE    CLEAR     74  58  57 N3        30.04R
BOOTHVILLE     MOCLDY    83  74  74 NE9       29.99R
BELLE CHASSE   MOCLDY    80  66  62 NE7       30.00R
BOGALUSA*        N/A     71  58  63 N3        30.05R
GALLIANO*      NOT AVBL
NEW ROADS*       N/A     71  60  67 N6        30.05R
GONZALES*        N/A     76  68  76 CALM      30.02R
HAMMOND*       NOT AVBL
HOUMA*         PTCLDY    78  60  53 N7        30.00R
PORT FOURCHON* CLOUDY    84  72  65 NE16      30.02R

$$

MSZ070-080>082-230200-
SOUTHERN MISSISSIPPI

CITY           SKY/WX    TMP DP  RH WIND       PRES   REMARKS
MCCOMB         CLEAR     73  54  51 N3        30.06R
GULFPORT       CLEAR     78  64  61 N7        30.00R
BILOXI         CLEAR     77  66  70 NE7       30.01R
PASCAGOULA     CLEAR     69  66  90 CALM      30.01R
STENNIS ARPT*  CLEAR     72  61  68 N5        30.02R

$$

COASTAL OBSERVATIONS
LAKE AND NEARSHORE STATIONS

STATION/POSITION TIME  TEMP    WIND        PRES    WAVE
                       AIR SEA DIR/SP/G            HT/PER
                 (UTC) (F)     (DEG/KT/KT) (MB)    (FT/S)
PASCAGOULA       0000   80      40/  5/  7 1015.3
WAVELAND YACHT   0000   81      10/ 10/ 12 1015.4
GRAND ISLE       0000   82 84   60/  8/ 14 1015.8
SOUTHWEST PASS   0000   85 90   40/  8/  9 1015.5
NEW CANAL        0000   83 83   30/ 20/ 23 1016.2
SHELL BEACH      0000   83 81   30/ 16/ 20 1015.6

OFFSHORE STATIONS

STATION/POSITION TIME  TEMP    WIND        PRES    WAVE
                       AIR SEA DIR/SP/G            HT/PER
                 (UTC) (F)     (DEG/KT/KT) (MB)    (FT/S)

$$




USA.gov is the U.S. government's official web portal to all federal, state and local government web resources and services.